When you browse on this site, cookies collect data to enhance your experience and personalize the content and advertising you see.
Visit our Privacy Policy to learn more. By continuing to use the site, you agree to this use of cookies and data.
  • In United Kingdom
  • List of Countries
  • For 7 days
  • Water Temperature
  • Weather Map
  • Weather Widgets
  • user-avatar
    Login

    Hourly Weather Pskov

    Today, 16 September, Monday

    Time Temperature Precipitation Wind Pressure Humidity
    00:00 +8°C° 0.2 mm 4 mps 742 mmHg 92%
    01:00 +8°C° 0.2 mm 5 mps 741 mmHg 92%
    02:00 +8°C° 0.2 mm 5 mps 741 mmHg 92%
    03:00 +8°C° 0.1 mm 5 mps 741 mmHg 92%
    04:00 +8°C° 0.1 mm 5 mps 741 mmHg 92%
    05:00 +8°C° 0.1 mm 5 mps 741 mmHg 91%
    06:00 +8°C° 0.1 mm 5 mps 741 mmHg 90%
    07:00 +9°C° 0.1 mm 5 mps 741 mmHg 89%
    08:00 +10°C° 0.1 mm 6 mps 740 mmHg 88%
    09:00 +10°C° 0.5 mm 6 mps 740 mmHg 86%
    10:00 +11°C° 0.5 mm 7 mps 740 mmHg 84%
    11:00 +12°C° 0.5 mm 7 mps 740 mmHg 82%
    12:00 +12°C° 0.3 mm 7 mps 740 mmHg 78%
    13:00 +14°C° 0.3 mm 7 mps 740 mmHg 74%
    14:00 +14°C° 0.3 mm 7 mps 741 mmHg 70%
    15:00 +12°C° 0.2 mm 7 mps 741 mmHg 72%
    16:00 +13°C° 0.2 mm 6 mps 741 mmHg 75%
    17:00 +11°C° 0.2 mm 6 mps 742 mmHg 77%
    18:00 +10°C° 0.2 mm 5 mps 742 mmHg 81%
    19:00 +9°C° 0.2 mm 5 mps 742 mmHg 85%
    20:00 +8°C° 0.2 mm 5 mps 742 mmHg 88%
    21:00 +8°C° 0 mm 5 mps 742 mmHg 89%
    22:00 +8°C° 0 mm 4 mps 742 mmHg 89%
    23:00 +8°C° 0 mm 4 mps 742 mmHg 89%

    Tomorrow, 17 September, Tuesday

    Time Temperature Precipitation Wind Pressure Humidity
    00:00 +7°C° 0 mm 4 mps 742 mmHg 90%
    01:00 +7°C° 0 mm 4 mps 742 mmHg 90%
    02:00 +7°C° 0 mm 4 mps 742 mmHg 91%
    03:00 +7°C° 0.1 mm 4 mps 742 mmHg 91%
    04:00 +8°C° 0.1 mm 3 mps 742 mmHg 92%
    05:00 +8°C° 0.1 mm 3 mps 742 mmHg 92%
    06:00 +8°C° 0.1 mm 3 mps 742 mmHg 92%
    07:00 +9°C° 0.1 mm 3 mps 742 mmHg 91%
    08:00 +9°C° 0.1 mm 2 mps 742 mmHg 90%
    09:00 +10°C° 0.2 mm 2 mps 742 mmHg 85%
    10:00 +12°C° 0.2 mm 2 mps 742 mmHg 79%
    11:00 +12°C° 0.2 mm 2 mps 742 mmHg 74%
    12:00 +13°C° 0.4 mm 2 mps 742 mmHg 73%
    13:00 +13°C° 0.4 mm 2 mps 742 mmHg 72%
    14:00 +13°C° 0.4 mm 2 mps 742 mmHg 71%
    15:00 +12°C° 0.5 mm 2 mps 742 mmHg 77%
    16:00 +10°C° 0.5 mm 2 mps 742 mmHg 83%
    17:00 +10°C° 0.5 mm 2 mps 742 mmHg 88%
    18:00 +9°C° 0.1 mm 2 mps 742 mmHg 90%
    19:00 +8°C° 0.1 mm 2 mps 742 mmHg 92%
    20:00 +8°C° 0.1 mm 1 mps 742 mmHg 94%
    21:00 +7°C° 0 mm 1 mps 742 mmHg 95%
    22:00 +7°C° 0 mm 1 mps 741 mmHg 95%
    23:00 +5°C° 0 mm 0 mps 741 mmHg 96%

    Day after tomorrow, 18 September, Wednesday

    Time Temperature Precipitation Wind Pressure Humidity
    00:00 +5°C° 0 mm 0 mps 741 mmHg 96%
    01:00 +5°C° 0 mm 0 mps 742 mmHg 96%
    02:00 +5°C° 0 mm 0 mps 742 mmHg 96%
    03:00 +6°C° 0.1 mm 1 mps 742 mmHg 96%
    04:00 +6°C° 0.1 mm 1 mps 742 mmHg 96%
    05:00 +5°C° 0.1 mm 2 mps 742 mmHg 96%
    06:00 +6°C° 0.1 mm 2 mps 743 mmHg 94%
    07:00 +6°C° 0.1 mm 2 mps 743 mmHg 92%
    08:00 +7°C° 0.1 mm 2 mps 743 mmHg 90%
    09:00 +8°C° 0 mm 2 mps 744 mmHg 85%
    10:00 +9°C° 0 mm 2 mps 745 mmHg 81%
    11:00 +10°C° 0 mm 2 mps 745 mmHg 76%
    12:00 +11°C° 0.3 mm 3 mps 746 mmHg 75%
    13:00 +11°C° 0.3 mm 3 mps 746 mmHg 74%
    14:00 +12°C° 0.3 mm 3 mps 746 mmHg 73%
    15:00 +11°C° 0.3 mm 3 mps 747 mmHg 76%
    16:00 +10°C° 0.3 mm 3 mps 747 mmHg 80%
    17:00 +10°C° 0.3 mm 3 mps 748 mmHg 84%
    18:00 +8°C° 0 mm 3 mps 748 mmHg 85%
    19:00 +7°C° 0 mm 3 mps 749 mmHg 87%
    20:00 +5°C° 0 mm 3 mps 750 mmHg 89%
    21:00 +5°C° 0 mm 2 mps 750 mmHg 90%
    22:00 +4°C° 0 mm 2 mps 751 mmHg 91%
    23:00 +3°C° 0 mm 2 mps 751 mmHg 92%

    19 September, Thursday

    Time Temperature Precipitation Wind Pressure Humidity
    00:00 +3°C° 0 mm 2 mps 752 mmHg 92%
    01:00 +3°C° 0 mm 2 mps 752 mmHg 93%
    02:00 +3°C° 0 mm 2 mps 753 mmHg 93%
    03:00 +3°C° 0 mm 2 mps 753 mmHg 94%
    04:00 +3°C° 0 mm 2 mps 753 mmHg 95%
    05:00 +3°C° 0 mm 2 mps 753 mmHg 95%
    06:00 +4°C° 0.2 mm 2 mps 754 mmHg 93%
    07:00 +5°C° 0.2 mm 2 mps 754 mmHg 91%
    08:00 +5°C° 0.2 mm 2 mps 754 mmHg 89%
    09:00 +6°C° 0.2 mm 2 mps 755 mmHg 86%
    10:00 +7°C° 0.2 mm 2 mps 755 mmHg 82%
    11:00 +8°C° 0.2 mm 1 mps 756 mmHg 79%
    12:00 +8°C° 0.2 mm 2 mps 756 mmHg 75%
    13:00 +9°C° 0.2 mm 2 mps 756 mmHg 72%
    14:00 +9°C° 0.2 mm 2 mps 756 mmHg 68%
    15:00 +9°C° 0.2 mm 2 mps 756 mmHg 71%
    16:00 +8°C° 0.2 mm 2 mps 756 mmHg 74%
    17:00 +8°C° 0.2 mm 2 mps 756 mmHg 77%
    18:00 +7°C° 0 mm 2 mps 757 mmHg 81%
    19:00 +5°C° 0 mm 2 mps 757 mmHg 85%
    20:00 +4°C° 0 mm 2 mps 758 mmHg 89%
    21:00 +3°C° 0 mm 2 mps 758 mmHg 88%
    22:00 +4°C° 0 mm 1 mps 758 mmHg 88%
    23:00 +3°C° 0 mm 1 mps 759 mmHg 88%

    20 September, Friday

    Time Temperature Precipitation Wind Pressure Humidity
    00:00 +3°C° 0 mm 1 mps 759 mmHg 88%
    01:00 +2°C° 0 mm 2 mps 759 mmHg 88%
    02:00 +1°C° 0 mm 2 mps 759 mmHg 88%
    03:00 +1°C° 0 mm 2 mps 759 mmHg 89%
    04:00 +1°C° 0 mm 2 mps 759 mmHg 89%
    05:00 +1°C° 0 mm 2 mps 760 mmHg 89%
    06:00 +2°C° 0.1 mm 2 mps 760 mmHg 88%
    07:00 +2°C° 0.1 mm 3 mps 760 mmHg 86%
    08:00 +4°C° 0.1 mm 3 mps 760 mmHg 85%
    09:00 +5°C° 0.1 mm 3 mps 760 mmHg 77%
    10:00 +7°C° 0.1 mm 3 mps 761 mmHg 69%
    11:00 +9°C° 0.1 mm 3 mps 761 mmHg 61%
    12:00 +9°C° 0.3 mm 3 mps 761 mmHg 61%
    13:00 +9°C° 0.3 mm 3 mps 761 mmHg 60%
    14:00 +9°C° 0.3 mm 3 mps 761 mmHg 60%
    15:00 +9°C° 0.1 mm 3 mps 761 mmHg 62%
    16:00 +9°C° 0.1 mm 3 mps 761 mmHg 65%
    17:00 +8°C° 0.1 mm 2 mps 761 mmHg 68%
    18:00 +7°C° 0 mm 2 mps 761 mmHg 75%
    19:00 +5°C° 0 mm 2 mps 762 mmHg 82%
    20:00 +4°C° 0 mm 2 mps 762 mmHg 89%
    21:00 +4°C° 0 mm 2 mps 762 mmHg 91%
    22:00 +3°C° 0 mm 2 mps 762 mmHg 92%
    23:00 +3°C° 0 mm 2 mps 762 mmHg 94%

    21 September, Saturday

    Time Temperature Precipitation Wind Pressure Humidity
    00:00 +3°C° 0 mm 2 mps 762 mmHg 94%
    01:00 +3°C° 0 mm 2 mps 762 mmHg 93%
    02:00 +3°C° 0 mm 2 mps 761 mmHg 93%
    03:00 +4°C° 0 mm 2 mps 761 mmHg 91%
    04:00 +3°C° 0 mm 3 mps 761 mmHg 89%
    05:00 +4°C° 0 mm 3 mps 760 mmHg 87%
    06:00 +4°C° 0.4 mm 4 mps 760 mmHg 89%
    07:00 +5°C° 0.4 mm 5 mps 759 mmHg 91%
    08:00 +5°C° 0.4 mm 5 mps 758 mmHg 93%
    09:00 +5°C° 1 mm 5 mps 758 mmHg 93%
    10:00 +5°C° 1 mm 6 mps 757 mmHg 94%
    11:00 +7°C° 1 mm 6 mps 757 mmHg 94%
    12:00 +7°C° 0.7 mm 5 mps 756 mmHg 95%
    13:00 +8°C° 0.7 mm 5 mps 756 mmHg 95%
    14:00 +9°C° 0.7 mm 5 mps 755 mmHg 96%
    15:00 +10°C° 0.5 mm 5 mps 755 mmHg 95%
    16:00 +11°C° 0.5 mm 4 mps 755 mmHg 94%
    17:00 +11°C° 0.5 mm 4 mps 755 mmHg 93%
    18:00 +11°C° 0 mm 4 mps 756 mmHg 93%
    19:00 +12°C° 0 mm 4 mps 756 mmHg 93%
    20:00 +12°C° 0 mm 4 mps 756 mmHg 93%
    21:00 +12°C° 0 mm 4 mps 757 mmHg 93%
    22:00 +12°C° 0 mm 4 mps 757 mmHg 93%
    23:00 +11°C° 0 mm 4 mps 757 mmHg 93%
    Show more